Location: Byhalia Creek
(34.8270°N, 89.8040°W)
Time: 08:31:24
(UTC+00:00)

Cosmos 841 Rocket - Pass Details

Date: 22 April 2026
Orbit: 741 x 767 km, 74.0° (Epoch: 15 May)

Event Time Altitude Azimuth Distance (km) Brightness Sun altitude
Exits shadow 08:58:31 50° 142° (SE) 947 3.9 -26.4°
Maximum altitude 08:59:22 57° 104° (ESE) 879 3.9 -26.2°
Drops below altitude 10° 09:04:25 10° 26° (NNE) 2,278 6.8 -25.4°
Sets 09:06:50 0° 23° (NNE) 3,210 7.7 -25.0°
